Погода в Цемо

Китай     38°08′15″N   85°28′52″E
темп.,
°C
ветер,
м/с
пор.,
м/с
влажн.,
%
обл.,
%
осадки,
мм/ч
давл.,
гПа
погр.,
м
29 ноября, пн
пн2923:00−4всв45580 0.0 104461
02:00−5всв33660 0.0 104425
05:00−6в33660 0.0 104423
08:00−7вюв33675 0.0 104416
11:00−5в35555 0.0 1044197
14:000всв453799 0.0 1040636
17:00+1всв443599 0.0 1038820
20:00−2всв3349100 0.0 103926
30 ноября, вт
вт3023:00−3вюв3349100 0.0 104025
02:00−5в2248100 0.0 104010
05:00−5в334892 0.0 103914
08:00−6в33504 0.0 103810
11:00−3в22404 0.0 1038110
14:00+2ссв21280 0.0 1035493
17:00+3св32260 0.0 1033695
20:00−1св44360 0.0 103423
1 декабря, ср
ср123:00−2в33395 0.0 103621
02:00−3в33406 0.0 103610
05:00−4в334253 0.0 103610
08:00−4в3343100 0.0 103713
11:00−2в3438100 0.0 1037146
14:00+3св44274 0.0 1033515
17:00+4всв44255 0.0 1032665
20:000всв45351 0.0 103340
2 декабря, чт
чт223:00−2всв44415 0.0 103440
02:00−3вюв3346100 0.0 103514
05:00−4вюв2249100 0.0 103510
08:00−4юв2249100 0.0 103510
11:00−1вюв1136100 0.0 103553
14:00+3вюв012555 0.0 1032408
17:00+6св32210 0.0 1029590
20:000всв44340 0.0 103122
3 декабря, пт
пт323:00−1в44350 0.0 103120
02:00−2в33370 0.0 103110
05:00−3всв33400 0.0 103210
08:00−4вюв33430 0.0 103211
11:00−1в34350 0.0 1033115
14:00+4всв45200 0.0 1029446
17:00+6св66180 0.0 1027566
20:00+1всв44280 0.0 103031